STRIX-5

Last updated on Mon Oct 20 2025 00:02:08 GMT+0000 (Coordinated Universal Time)

1 65971U 25229A 25291.97001658 .00011180 00000+0 84731-3 0 9999 2 65971 41.9276 182.3365 0041159 274.4290 85.1833 15.01526587 676
UTC large
Height (km)
Speed (km/s)
/
Latitude / Longitude
Inclination (degrees)
Orbital Period (minutes)
Azimuth
Elevation
Range (km)
Doppler Factor

Next 0 passes for location: London (51.5072 / 0.1276)

Sorry there are no passes over London.